Weather History for Toronto City ON, Ontario

Change the Weather History Date:

Friday, February 7, 2014

  Actual Average Record
Temperature  
Mean Temperature 12 °F -  
Max Temperature 15 °F - - ()
Min Temperature 7 °F - - ()
Degree Days  
Heating Degree Days 54    
Moisture  
Dew Point 4 °F    
Average Humidity 65    
Maximum Humidity 75    
Minimum Humidity 45    
Precipitation  
Precipitation 0.00 in - - ()
Sea Level Pressure  
Sea Level Pressure 30.26 in    
Wind  
Wind Speed - ()    
Max Wind Speed -    
Max Gust Speed -    
T = Trace of Precipitation, MM = Missing Value Source: Averaged Metar Reports

Daily Weather History Graph

Daily Weather History Graph

Search for Another Location

Airport:

Trip Planner

Search our weather history database for the weather conditions in past years. The results will help you decide how hot, cold, wet, or windy it might be!

Date:

Astronomy

Feb. 07, 2014 Rise Set
Actual Time 7:27 AM EST 5:36 PM EST
Civil Twilight 6:57 AM EST 6:07 PM EST
Nautical Twilight 6:23 AM EST 6:41 PM EST
Astronomical Twilight 5:49 AM EST 7:14 PM EST
Moon 11:45 AM EST (2/7) 1:42 AM EST (2/7)
Length of Visible Light 11h 09m
Length of Day
10h 09m
First Quarter, 59% of the Moon is Illuminated
Feb 7
First Quarter
Feb 14
Full
Feb 22
Last Quarter
Mar 1
New
Mar 8
First Quarter

Hourly Weather History & Observations

Time (EST) Temp. Dew Point Humidity Pressure Visibility Wind Dir Wind Speed Gust Speed Precip Events Conditions
12:00 AM 17.4 °F 9.9 °F 72% 30.21 in - North - - N/A   Unknown
1:00 AM 17 °F 10 °F 64% 30.22 in - Calm Calm - -  
1:00 AM 16.7 °F 10.0 °F 75% 30.22 in - North - - N/A   Unknown
2:00 AM 14.9 °F 5.4 °F 66% 30.22 in - North - - N/A   Unknown
3:00 AM 12.9 °F 3.6 °F 66% 30.25 in - North - - N/A   Unknown
4:00 AM 12.2 °F 2.8 °F 66% 30.25 in - North - - N/A   Unknown
5:00 AM 12.6 °F 3.2 °F 66% 30.26 in - North - - N/A   Unknown
6:00 AM 12.6 °F 3.0 °F 66% 30.26 in - North - - N/A   Unknown
7:00 AM 12 °F 3 °F 55% 30.27 in - Calm Calm - -  
7:00 AM 12.4 °F 3.2 °F 67% 30.27 in - North - - N/A   Unknown
8:00 AM 12.0 °F 4.1 °F 71% 30.27 in - North - - N/A   Unknown
9:00 AM 10.9 °F 2.5 °F 69% 30.29 in - North - - N/A   Unknown
10:00 AM 11.8 °F 3.0 °F 68% 30.29 in - North - - N/A   Unknown
11:00 AM 12.7 °F 2.5 °F 64% 30.29 in - North - - N/A   Unknown
12:00 PM 13.6 °F 2.1 °F 60% 30.27 in - North - - N/A   Unknown
1:00 PM 14 °F 2 °F 45% 30.25 in - Calm Calm - -  
1:00 PM 14.2 °F 4.1 °F 64% 30.25 in - North - - N/A   Unknown
2:00 PM 15.3 °F 4.3 °F 62% 30.24 in - North - - N/A   Unknown
3:00 PM 14.7 °F 3.6 °F 61% 30.24 in - North - - N/A   Unknown
4:00 PM 14.9 °F 4.1 °F 62% 30.25 in - North - - N/A   Unknown
5:00 PM 13.6 °F 3.0 °F 63% 30.26 in - North - - N/A   Unknown
6:00 PM 12.0 °F 4.1 °F 71% 30.27 in - North - - N/A   Unknown
7:00 PM 12 °F 3 °F 53% 30.29 in - Calm Calm - -  
7:00 PM 11.7 °F 2.7 °F 67% 30.29 in - North - - N/A   Unknown
8:00 PM 10.6 °F 2.7 °F 70% 30.29 in - North - - N/A   Unknown
9:00 PM 11.3 °F 1.6 °F 65% 30.29 in - North - - N/A   Unknown
10:00 PM 8.6 °F 0.3 °F 69% 30.30 in - North - - N/A   Unknown
11:00 PM 7.5 °F -0.4 °F 70% 30.30 in - North - - N/A   Unknown